| time (UTC) | temp C | wind direction | speed KPH | gust KPH | rain 1hr cm | rain 24hr cm | rain mn cm | humidity % | barometer mb |
| 20260502170340 | 8 | 316 | 9.7 | 17.7 | 0.00 | 0.00 | 0.00 | 60 | 1014.4 |
| 20260502163829 | 7 | 25 | 11.3 | 22.5 | 0.00 | 0.00 | 0.00 | 59 | 1014.4 |
| 20260502163403 | 7 | 6 | 14.5 | 22.5 | 0.00 | 0.00 | 0.00 | 57 | 1014.4 |
| 20260502162854 | 7 | 258 | 6.4 | 19.3 | 0.00 | 0.00 | 0.00 | 59 | 1014.5 |
| 20260502162348 | 7 | 1 | 9.7 | 20.9 | 0.00 | 0.00 | 0.00 | 60 | 1014.5 |
| 20260502161840 | 7 | 355 | 8.0 | 20.9 | 0.00 | 0.00 | 0.00 | 60 | 1014.6 |
| 20260502160405 | 8 | 3 | 6.4 | 9.7 | 0.00 | 0.00 | 0.00 | 58 | 1014.7 |
| 20260502151851 | 7 | 18 | 9.7 | 25.7 | 0.00 | 0.00 | 0.00 | 58 | 1014.6 |
| 20260502151328 | 7 | 355 | 8.0 | 17.7 | 0.00 | 0.00 | 0.00 | 60 | 1014.6 |
| 20260502150901 | 7 | 2 | 4.8 | 17.7 | 0.00 | 0.00 | 0.00 | 60 | 1014.7 |
| 20260502130404 | 3 | 353 | 4.8 | 11.3 | 0.00 | 0.00 | 0.00 | 81 | 1014.8 |
| 20260502123328 | 3 | 359 | 4.8 | 8.0 | 0.00 | 0.00 | 0.00 | 83 | 1014.6 |
| 20260502122900 | 3 | 13 | 3.2 | 8.0 | 0.00 | 0.00 | 0.00 | 84 | 1014.5 |
| 20260502122353 | 3 | 6 | 4.8 | 9.7 | 0.00 | 0.00 | 0.00 | 85 | 1014.5 |
| 20260502121829 | 2 | 343 | 4.8 | 9.7 | 0.00 | 0.00 | 0.00 | 85 | 1014.6 |
| 20260502121404 | 2 | 1 | 1.6 | 8.0 | 0.00 | 0.00 | 0.00 | 86 | 1014.6 |
| 20260502120331 | 2 | 23 | 3.2 | 6.4 | 0.00 | 0.00 | 0.00 | 88 | 1014.5 |
| 20260502115903 | 2 | 352 | 1.6 | 8.0 | 0.00 | 0.00 | 0.00 | 89 | 1014.4 |
| 20260502114831 | 2 | 356 | 3.2 | 6.4 | 0.00 | 0.00 | 0.00 | 90 | 1014.5 |
| 20260502114405 | 2 | 336 | 1.6 | 6.4 | 0.00 | 0.00 | 0.00 | 91 | 1014.5 |
| 20260502113857 | 2 | 1 | 0.0 | 0.0 | 0.00 | 0.00 | 0.00 | 92 | 1014.5 |
| 20260502113335 | 1 | 1 | 0.0 | 0.0 | 0.00 | 0.00 | 0.00 | 93 | 1014.4 |
| 20260502112826 | 1 | 2 | 0.0 | 3.2 | 0.00 | 0.00 | 0.00 | 93 | 1014.5 |
| 20260502112400 | 1 | 15 | 1.6 | 3.2 | 0.00 | 0.00 | 0.00 | 93 | 1014.4 |
| 20260502111328 | 1 | 15 | 0.0 | 0.0 | 0.00 | 0.00 | 0.00 | 92 | 1014.4 |
| 20260502110901 | 1 | 15 | 0.0 | 0.0 | 0.00 | 0.00 | 0.00 | 92 | 1014.4 |
| 20260502110354 | 1 | 15 | 0.0 | 0.0 | 0.00 | 0.00 | 0.00 | 92 | 1014.2 |
| 20260502105403 | 1 | 15 | 0.0 | 0.0 | 0.00 | 0.00 | 0.00 | 91 | 1014.2 |
| 20260502104356 | 1 | 15 | 0.0 | 4.8 | 0.00 | 0.00 | 0.00 | 91 | 1014.0 |
| 20260502103848 | 1 | 15 | 1.6 | 4.8 | 0.00 | 0.00 | 0.00 | 91 | 1014.0 |
| 20260502103342 | 1 | 15 | 1.6 | 4.8 | 0.00 | 0.00 | 0.00 | 91 | 1014.1 |
| 20260502102831 | 1 | 345 | 1.6 | 4.8 | 0.00 | 0.00 | 0.00 | 90 | 1014.2 |
| 20260502102405 | 1 | 345 | 3.2 | 4.8 | 0.00 | 0.00 | 0.00 | 90 | 1014.3 |
| 20260502101858 | 1 | 345 | 1.6 | 3.2 | 0.00 | 0.00 | 0.00 | 90 | 1014.4 |
| 20260502101335 | 1 | 345 | 0.0 | 1.6 | 0.00 | 0.00 | 0.00 | 90 | 1014.4 |
| 20260502100343 | 1 | 356 | 3.2 | 6.4 | 0.00 | 0.00 | 0.00 | 90 | 1014.2 |
| 20260502091400 | 2 | 4 | 3.2 | 6.4 | 0.00 | 0.00 | 0.00 | 85 | 1014.6 |
| 20260502090853 | 2 | 359 | 3.2 | 8.0 | 0.00 | 0.00 | 0.00 | 85 | 1014.5 |
| 20260502070843 | 3 | 13 | 4.8 | 12.9 | 0.00 | 0.00 | 0.00 | 77 | 1014.3 |
| 20260502065852 | 4 | 359 | 4.8 | 8.0 | 0.00 | 0.00 | 0.00 | 76 | 1014.4 |
| 20260502064819 | 4 | 4 | 0.0 | 4.8 | 0.00 | 0.00 | 0.00 | 76 | 1014.5 |
| 20260502063848 | 4 | 15 | 1.6 | 6.4 | 0.00 | 0.00 | 0.00 | 76 | 1014.5 |
| 20260502063341 | 4 | 1 | 1.6 | 4.8 | 0.00 | 0.00 | 0.00 | 76 | 1014.5 |
| 20260502062815 | 4 | 359 | 3.2 | 8.0 | 0.00 | 0.00 | 0.00 | 75 | 1014.5 |
| 20260502062348 | 4 | 6 | 4.8 | 6.4 | 0.00 | 0.00 | 0.00 | 75 | 1014.7 |
| 20260502061837 | 4 | 1 | 3.2 | 6.4 | 0.00 | 0.00 | 0.00 | 75 | 1014.8 |
| 20260502061330 | 4 | 351 | 3.2 | 6.4 | 0.00 | 0.00 | 0.00 | 75 | 1014.9 |
| 20260502060823 | 4 | 305 | 1.6 | 11.3 | 0.00 | 0.00 | 0.00 | 76 | 1014.9 |
| 20260502060316 | 4 | 354 | 1.6 | 11.3 | 0.00 | 0.00 | 0.00 | 75 | 1014.8 |
| 20260502055828 | 4 | 23 | 3.2 | 11.3 | 0.00 | 0.00 | 0.00 | 75 | 1014.8 |
| 20260502055321 | 5 | 297 | 3.2 | 16.1 | 0.00 | 0.00 | 0.00 | 75 | 1014.8 |
| 20260502054818 | 5 | 360 | 4.8 | 12.9 | 0.00 | 0.00 | 0.00 | 74 | 1014.7 |
| 20260502054331 | 5 | 1 | 4.8 | 12.9 | 0.00 | 0.00 | 0.00 | 74 | 1014.6 |
| 20260502053823 | 5 | 356 | 4.8 | 12.9 | 0.00 | 0.00 | 0.00 | 75 | 1014.7 |
| 20260502053316 | 5 | 360 | 4.8 | 11.3 | 0.00 | 0.00 | 0.00 | 78 | 1014.8 |
| 20260502052830 | 5 | 20 | 3.2 | 11.3 | 0.00 | 0.00 | 0.00 | 78 | 1014.9 |
| 20260502052322 | 5 | 349 | 4.8 | 11.3 | 0.00 | 0.00 | 0.00 | 76 | 1014.8 |
| 20260502051815 | 5 | 27 | 6.4 | 19.3 | 0.00 | 0.00 | 0.00 | 76 | 1014.9 |
| 20260502051327 | 5 | 347 | 4.8 | 19.3 | 0.00 | 0.00 | 0.00 | 76 | 1014.8 |
| 20260502050824 | 5 | 354 | 3.2 | 16.1 | 0.00 | 0.00 | 0.00 | 78 | 1014.8 |
| 20260502045832 | 5 | 11 | 4.8 | 12.9 | 0.00 | 0.00 | 0.00 | 82 | 1014.9 |
| 20260502045325 | 5 | 23 | 4.8 | 17.7 | 0.00 | 0.00 | 0.00 | 81 | 1015.0 |
| 20260502044312 | 5 | 1 | 4.8 | 14.5 | 0.00 | 0.00 | 0.00 | 83 | 1015.0 |
| 20260502042814 | 6 | 352 | 4.8 | 12.9 | 0.00 | 0.00 | 0.00 | 84 | 1014.9 |
| 20260502042327 | 6 | 332 | 6.4 | 12.9 | 0.00 | 0.00 | 0.00 | 84 | 1014.9 |
| 20260502041824 | 6 | 2 | 4.8 | 12.9 | 0.00 | 0.00 | 0.00 | 84 | 1014.9 |
| 20260502040812 | 6 | 357 | 6.4 | 17.7 | 0.00 | 0.00 | 0.00 | 83 | 1014.8 |
| 20260502040325 | 6 | 25 | 6.4 | 17.7 | 0.00 | 0.00 | 0.00 | 83 | 1014.8 |
| 20260502035838 | 6 | 359 | 3.2 | 14.5 | 0.00 | 0.00 | 0.00 | 84 | 1014.8 |
| 20260502035430 | 6 | 31 | 6.4 | 14.5 | 0.00 | 0.00 | 0.00 | 83 | 1014.9 |
| 20260502034839 | 6 | 359 | 3.2 | 6.4 | 0.00 | 0.00 | 0.00 | 83 | 1014.9 |
| 20260502034331 | 6 | 3 | 1.6 | 11.3 | 0.00 | 0.00 | 0.00 | 84 | 1014.8 |
| 20260502033905 | 6 | 360 | 4.8 | 11.3 | 0.00 | 0.00 | 0.00 | 83 | 1014.8 |
| 20260502033358 | 6 | 15 | 4.8 | 12.9 | 0.00 | 0.00 | 0.00 | 82 | 1014.9 |
| 20260502032835 | 6 | 20 | 6.4 | 12.9 | 0.00 | 0.00 | 0.00 | 82 | 1014.9 |
| 20260502032328 | 6 | 13 | 4.8 | 9.7 | 0.00 | 0.00 | 0.00 | 81 | 1015.0 |
| 20260502031822 | 6 | 2 | 4.8 | 9.7 | 0.00 | 0.00 | 0.00 | 82 | 1015.0 |
| 20260502031314 | 6 | 1 | 3.2 | 8.0 | 0.00 | 0.00 | 0.00 | 81 | 1015.0 |
| 20260502030342 | 6 | 12 | 4.8 | 16.1 | 0.00 | 0.00 | 0.00 | 81 | 1015.0 |
| 20260502025835 | 6 | 15 | 6.4 | 9.7 | 0.00 | 0.00 | 0.00 | 80 | 1015.0 |
| 20260502025327 | 6 | 106 | 3.2 | 11.3 | 0.00 | 0.00 | 0.00 | 81 | 1015.0 |
| 20260502024901 | 6 | 1 | 6.4 | 16.1 | 0.00 | 0.00 | 0.00 | 80 | 1015.1 |
| 20260502024338 | 6 | 276 | 3.2 | 16.1 | 0.00 | 0.00 | 0.00 | 79 | 1014.9 |
| 20260502023831 | 6 | 10 | 4.8 | 12.9 | 0.00 | 0.00 | 0.00 | 79 | 1014.6 |
| 20260502022838 | 6 | 1 | 4.8 | 16.1 | 0.00 | 0.00 | 0.00 | 79 | 1014.5 |
| 20260502022330 | 6 | 354 | 8.0 | 19.3 | 0.00 | 0.00 | 0.00 | 78 | 1014.4 |
| 20260502020812 | 7 | 14 | 6.4 | 17.7 | 0.00 | 0.00 | 0.00 | 79 | 1014.5 |
| 20260502020406 | 7 | 15 | 6.4 | 20.9 | 0.00 | 0.00 | 0.00 | 79 | 1014.4 |
| 20260502015842 | 7 | 337 | 9.7 | 20.9 | 0.00 | 0.00 | 0.00 | 78 | 1014.3 |
| 20260502014852 | 7 | 2 | 11.3 | 32.2 | 0.00 | 0.00 | 0.00 | 78 | 1013.8 |
| 20260502014345 | 7 | 333 | 9.7 | 32.2 | 0.00 | 0.00 | 0.00 | 78 | 1013.8 |
| 20260502013838 | 7 | 31 | 11.3 | 27.4 | 0.00 | 0.00 | 0.00 | 79 | 1013.7 |
| 20260502013332 | 7 | 360 | 6.4 | 12.9 | 0.00 | 0.00 | 0.00 | 80 | 1013.6 |
| 20260502012823 | 8 | 1 | 6.4 | 12.9 | 0.00 | 0.00 | 0.00 | 80 | 1013.5 |
| 20260502011835 | 8 | 60 | 6.4 | 17.7 | 0.00 | 0.00 | 0.00 | 80 | 1013.5 |
| 20260502010844 | 8 | 353 | 8.0 | 12.9 | 0.00 | 0.00 | 0.00 | 81 | 1013.3 |
| 20260502010338 | 8 | 32 | 4.8 | 11.3 | 0.00 | 0.00 | 0.00 | 81 | 1013.3 |
| 20260502005830 | 8 | 351 | 4.8 | 12.9 | 0.00 | 0.00 | 0.00 | 81 | 1013.2 |
| 20260502005404 | 8 | 360 | 6.4 | 14.5 | 0.00 | 0.00 | 0.00 | 81 | 1013.3 |
| 20260502004857 | 8 | 360 | 8.0 | 16.1 | 0.00 | 0.00 | 0.00 | 81 | 1013.2 |
| 20260502004350 | 8 | 11 | 6.4 | 20.9 | 0.00 | 0.00 | 0.00 | 81 | 1013.0 |
| 20260502003827 | 8 | 3 | 9.7 | 20.9 | 0.00 | 0.00 | 0.00 | 81 | 1013.0 |
| 20260502002832 | 8 | 11 | 8.0 | 25.7 | 0.00 | 0.00 | 0.00 | 80 | 1012.9 |
| 20260502002357 | 8 | 360 | 6.4 | 25.7 | 0.00 | 0.00 | 0.00 | 80 | 1012.8 |
| 20260502001835 | 8 | 39 | 8.0 | 25.7 | 0.00 | 0.00 | 0.00 | 80 | 1012.7 |
| 20260502001329 | 8 | 4 | 9.7 | 20.9 | 0.00 | 0.00 | 0.00 | 79 | 1012.6 |
| 20260502000336 | 8 | 5 | 4.8 | 12.9 | 0.00 | 0.00 | 0.00 | 78 | 1012.2 |
| 20260501235830 | 9 | 356 | 6.4 | 12.9 | 0.00 | 0.00 | 0.00 | 77 | 1012.1 |
| 20260501235403 | 9 | 359 | 6.4 | 12.9 | 0.00 | 0.00 | 0.00 | 76 | 1012.2 |
| 20260501234856 | 9 | 354 | 8.0 | 14.5 | 0.00 | 0.00 | 0.00 | 75 | 1012.1 |
| 20260501234333 | 10 | 27 | 6.4 | 19.3 | 0.00 | 0.00 | 0.00 | 75 | 1011.8 |
| 20260501233328 | 10 | 44 | 8.0 | 25.7 | 0.00 | 0.00 | 0.00 | 72 | 1011.7 |
| 20260501232901 | 10 | 336 | 11.3 | 25.7 | 0.00 | 0.00 | 0.00 | 69 | 1011.8 |
| 20260501232355 | 11 | 93 | 8.0 | 22.5 | 0.00 | 0.00 | 0.00 | 67 | 1011.6 |
| 20260501231404 | 12 | 352 | 11.3 | 32.2 | 0.00 | 0.00 | 0.00 | 59 | 1011.2 |
| 20260501230856 | 13 | 68 | 4.8 | 16.1 | 0.00 | 0.00 | 0.00 | 53 | 1010.9 |
| 20260501230334 | 13 | 359 | 6.4 | 27.4 | 0.00 | 0.00 | 0.00 | 52 | 1011.0 |
| 20260501225906 | 13 | 278 | 3.2 | 27.4 | 0.00 | 0.00 | 0.00 | 53 | 1011.2 |
| 20260501223844 | 14 | 248 | 4.8 | 17.7 | 0.00 | 0.00 | 0.00 | 46 | 1011.0 |
| 20260501223337 | 15 | 313 | 8.0 | 19.3 | 0.00 | 0.00 | 0.00 | 45 | 1011.1 |
| 20260501222827 | 15 | 271 | 4.8 | 16.1 | 0.00 | 0.00 | 0.00 | 46 | 1011.0 |
| 20260501222401 | 15 | 298 | 6.4 | 22.5 | 0.00 | 0.00 | 0.00 | 46 | 1010.9 |
| 20260501221854 | 15 | 289 | 11.3 | 22.5 | 0.00 | 0.00 | 0.00 | 45 | 1011.0 |
| 20260501221331 | 15 | 12 | 9.7 | 24.1 | 0.00 | 0.00 | 0.00 | 44 | 1011.0 |
| 20260501220824 | 15 | 319 | 11.3 | 27.4 | 0.00 | 0.00 | 0.00 | 43 | 1011.0 |
| 20260501215328 | 16 | 271 | 11.3 | 24.1 | 0.00 | 0.00 | 0.00 | 41 | 1010.9 |
| 20260501214820 | 16 | 209 | 12.9 | 22.5 | 0.00 | 0.00 | 0.00 | 40 | 1010.9 |
| 20260501214313 | 16 | 264 | 9.7 | 24.1 | 0.00 | 0.00 | 0.00 | 40 | 1011.0 |
| 20260501213907 | 16 | 267 | 9.7 | 22.5 | 0.00 | 0.00 | 0.00 | 41 | 1011.0 |
| 20260501213359 | 16 | 249 | 9.7 | 22.5 | 0.00 | 0.00 | 0.00 | 43 | 1011.0 |
| 20260501212352 | 15 | 230 | 6.4 | 19.3 | 0.00 | 0.00 | 0.00 | 44 | 1010.8 |
| 20260501211846 | 15 | 255 | 9.7 | 19.3 | 0.00 | 0.00 | 0.00 | 45 | 1011.0 |
| 20260501211338 | 15 | 276 | 11.3 | 27.4 | 0.00 | 0.00 | 0.00 | 42 | 1011.3 |
| 20260501210832 | 16 | 280 | 12.9 | 27.4 | 0.00 | 0.00 | 0.00 | 39 | 1011.1 |
| 20260501205856 | 16 | 6 | 8.0 | 25.7 | 0.00 | 0.00 | 0.00 | 42 | 1011.1 |
| 20260501205349 | 16 | 345 | 6.4 | 19.3 | 0.00 | 0.00 | 0.00 | 43 | 1011.1 |
| 20260501204842 | 15 | 285 | 9.7 | 40.2 | 0.00 | 0.00 | 0.00 | 41 | 1011.3 |
| 20260501204319 | 16 | 269 | 12.9 | 40.2 | 0.00 | 0.00 | 0.00 | 38 | 1011.2 |
| 20260501203853 | 16 | 155 | 8.0 | 30.6 | 0.00 | 0.00 | 0.00 | 39 | 1011.0 |
| 20260501203345 | 16 | 324 | 11.3 | 30.6 | 0.00 | 0.00 | 0.00 | 38 | 1011.1 |
| 20260501202837 | 16 | 290 | 16.1 | 30.6 | 0.00 | 0.00 | 0.00 | 38 | 1011.2 |
| 20260501202328 | 16 | 236 | 14.5 | 30.6 | 0.00 | 0.00 | 0.00 | 37 | 1010.9 |
| 20260501201902 | 16 | 301 | 11.3 | 30.6 | 0.00 | 0.00 | 0.00 | 38 | 1011.1 |
| 20260501201355 | 16 | 293 | 19.3 | 30.6 | 0.00 | 0.00 | 0.00 | 39 | 1011.3 |
| 20260501200402 | 16 | 252 | 16.1 | 29.0 | 0.00 | 0.00 | 0.00 | 35 | 1011.1 |
| 20260501195840 | 16 | 267 | 9.7 | 35.4 | 0.00 | 0.00 | 0.00 | 38 | 1011.3 |
| 20260501194846 | 17 | 228 | 9.7 | 27.4 | 0.00 | 0.00 | 0.00 | 39 | 1011.3 |
| 20260501194340 | 17 | 259 | 12.9 | 27.4 | 0.00 | 0.00 | 0.00 | 37 | 1011.3 |
| 20260501193831 | 17 | 228 | 8.0 | 35.4 | 0.00 | 0.00 | 0.00 | 37 | 1011.3 |
| 20260501193405 | 17 | 359 | 11.3 | 35.4 | 0.00 | 0.00 | 0.00 | 34 | 1011.2 |
| 20260501192858 | 17 | 249 | 9.7 | 20.9 | 0.00 | 0.00 | 0.00 | 35 | 1011.3 |
| 20260501191903 | 17 | 263 | 12.9 | 29.0 | 0.00 | 0.00 | 0.00 | 36 | 1011.4 |
| 20260501191339 | 17 | 183 | 12.9 | 29.0 | 0.00 | 0.00 | 0.00 | 35 | 1011.7 |
| 20260501190832 | 17 | 353 | 9.7 | 20.9 | 0.00 | 0.00 | 0.00 | 35 | 1011.6 |
| 20260501190405 | 16 | 218 | 9.7 | 20.9 | 0.00 | 0.00 | 0.00 | 37 | 1011.7 |
| 20260501185858 | 16 | 234 | 11.3 | 25.7 | 0.00 | 0.00 | 0.00 | 34 | 1011.7 |
| 20260501185352 | 17 | 269 | 12.9 | 25.7 | 0.00 | 0.00 | 0.00 | 41 | 1011.8 |
| 20260501184844 | 17 | 227 | 8.0 | 22.5 | 0.00 | 0.00 | 0.00 | 39 | 1011.8 |
| 20260501183840 | 16 | 2 | 8.0 | 27.4 | 0.00 | 0.00 | 0.00 | 40 | 1011.7 |
| 20260501183316 | 16 | 293 | 16.1 | 27.4 | 0.00 | 0.00 | 0.00 | 40 | 1011.8 |
| 20260501182906 | 16 | 225 | 16.1 | 25.7 | 0.00 | 0.00 | 0.00 | 39 | 1011.8 |
| 20260501181856 | 16 | 247 | 16.1 | 32.2 | 0.00 | 0.00 | 0.00 | 34 | 1011.8 |
| 20260501181349 | 16 | 309 | 11.3 | 22.5 | 0.00 | 0.00 | 0.00 | 38 | 1011.8 |
| 20260501180337 | 16 | 268 | 11.3 | 27.4 | 0.00 | 0.00 | 0.00 | 39 | 1012.1 |
| 20260501175406 | 16 | 297 | 14.5 | 32.2 | 0.00 | 0.00 | 0.00 | 35 | 1012.0 |
| 20260501174858 | 16 | 245 | 17.7 | 29.0 | 0.00 | 0.00 | 0.00 | 33 | 1012.0 |
| 20260501174336 | 16 | 266 | 8.0 | 20.9 | 0.00 | 0.00 | 0.00 | 39 | 1012.1 |
| 20260501173344 | 16 | 271 | 14.5 | 24.1 | 0.00 | 0.00 | 0.00 | 34 | 1012.2 |
| 20260501172837 | 16 | 289 | 9.7 | 20.9 | 0.00 | 0.00 | 0.00 | 38 | 1012.1 |
| 20260501172327 | 15 | 172 | 9.7 | 29.0 | 0.00 | 0.00 | 0.00 | 35 | 1012.2 |
| 20260501171901 | 15 | 245 | 12.9 | 29.0 | 0.00 | 0.00 | 0.00 | 36 | 1012.3 |